Tracking 23611 objects as of 18-Sep-2021
HD Live streaming from Space Station
objects crossing your sky now
Track INSPIRATION-4

STARLINK-1877

Track STARLINK-1877 now!
10-day predictions
STARLINK-1877 is classified as:


NORAD ID: 47162
Int'l Code: 2020-088AS
Perigee: 553.0 km
Apogee: 555.7 km
Inclination: 53.1 °
Period: 95.6 minutes
Semi major axis: 6925 km
RCS: Unknown
Launch date: November 25, 2020
Source: United States (US)
Launch site: AIR FORCE EASTERN TEST RANGE (AFETR)
aabbcc
Your satellite tracking list
Your tracking list is empty




NASA's NSSDC Master Catalog

Two Line Element Set (TLE):
1 47162U 20088AS  21260.77828540 -.00001194  00000-0 -61291-4 0  9990
2 47162  53.0551  76.5194 0001947  88.8816 271.2396 15.06391194 45573
Source of the keplerian elements: AFSPC